Regional Weather Roundup
Issued by NWS Green Bay, WI

Home | Current Version | Previous Version | Graphics & Text | Print | Product List | Glossary Off
Versions: 1 2 3 4 5 6 7 8 9 10 11 12 13 14 15 16 17 18 19 20 21 22 23 24 25 26 27 28 29 30 31 32 33 34 35 36 37 38 39 40 41 42 43 44 45 46 47 48 49 50

000
ASUS43 KGRB 311511
RWRGRB

NORTH-CENTRAL AND NORTHEAST WISCONSIN REGIONAL WEATHER ROUNDUP
NATIONAL WEATHER SERVICE GREEN BAY WI
1000 AM CDT MON AUG 31 2015

WIZ005-009-010>012-018-019-311600-
NORTH CENTRAL WISCONSIN

CITY           SKY/WX    TMP DP  RH WIND       PRES   REMARKS
IRONWOOD       SUNNY     72  63  73 S10       29.92S
MANITOWISH WTR MOSUNNY   68  64  85 SW8       30.00S
ARBOR VITAE    MOSUNNY   72  67  84 S10       30.01S
EAGLE RIVER    MOSUNNY   69  62  78 SW9       30.02R
LAND O LAKES   SUNNY     72  61  70 SW8       30.02R
RHINELANDER    CLOUDY    67  63  87 SW8       30.04R
PHILLIPS       CLOUDY    65  64  98 SW8       30.01S FOG
ANTIGO         CLOUDY    64  64 100 W5        30.05S FOG
TOMAHAWK       CLOUDY    65  64  97 CALM      30.04S FOG
MERRILL        CLOUDY    67  66  97 SW3       30.04S FOG
$$

WIZ013-073-311600-
NORTHEAST WISCONSIN

CITY           SKY/WX    TMP DP  RH WIND       PRES   REMARKS
IRON MOUNTAIN  SUNNY     69  63  81 S5        30.00R
MARINETTE      CLOUDY    64  61  88 SW7       30.01S
OCONTO         CLOUDY    64  64 100 W6        30.03R
$$

WIZ017-030-035>037-045-311600-
CENTRAL WISCONSIN

CITY           SKY/WX    TMP DP  RH WIND       PRES   REMARKS
MEDFORD        FOG       64  64 100 SW5       30.04S VSB 1
WAUSAU         CLOUDY    64  63  96 SW6       30.03S FOG
MOSINEE        NOT AVBL
MARSHFIELD     FOG       67  64  90 SW8       30.04S VSB 3/4
WISC RAPIDS    CLOUDY    67  65  93 SW3       30.05S
STEVENS POINT  CLOUDY    63  63 100 CALM      30.05R FOG
WAUPACA        CLOUDY    68  67  96 SW3       30.05R FOG
SHAWANO        CLOUDY    67  66  96 SW3       30.04R FOG
CLINTONVILLE   CLOUDY    64  63  94 SW5       30.04R
WAUTOMA        CLOUDY    69  68  97 CALM      30.06R
$$

WIZ038-039-048-051-311600-
FOX VALLEY

CITY           SKY/WX    TMP DP  RH WIND       PRES   REMARKS
NWS GREEN BAY  PTSUNNY   71  67  87 SW7       30.03S
APPLETON       CLOUDY    66  66 100 SW8       30.03S
OSHKOSH        CLOUDY    69  65  86 VRB6      30.05S
FOND DU LAC    CLOUDY    68  66  93 SW3       30.06S
$$

WIZ022-050-052-311600-
EAST CENTRAL WISCONSIN

CITY           SKY/WX    TMP DP  RH WIND       PRES   REMARKS
EPHRAIM        FOG       62  62  99 W8        30.01S VSB 1/2
STURGEON BAY   CLOUDY    66  63  88 SW9       30.05R
MANITOWOC      MOSUNNY   72  66  81 MISG      30.05R
SHEBOYGAN      MOSUNNY   72  66  81 W8        30.06R
$$

LMZ563-521-522-541>543-311600-
LAKESHORE

STATION/POSITION TIME  TEMP    WIND        PRES    VSBY  WAVE
                       AIR SEA DIR/SP/G                  HT/PER
                 (UTC) (F)     (DEG/KT/KT) (MB)    (MI)  (FT/S)
SHEBOYGAN LKSHOR 1500   65     180/ 11/ 11 1017.9R
NORTHPORT PIER   1400   64     230/  4/  8 1015.9R
N MID LAKE BUOY  1450   62 65  210/ 14/ 16 1016.0R         2/ 4
CHAMBERS ISLAND  1400   63     210/  4/  8 1016.3R
$$


USA.gov is the U.S. government's official web portal to all federal, state and local government web resources and services.